Weather History for Bremerton, WA

Change the Weather History Date:

Tuesday, September 25, 2012

  Actual Average Record
Temperature  
Mean Temperature 54 °F -  
Max Temperature 66 °F 65 °F 78 °F (2006)
Min Temperature 42 °F 44 °F 37 °F (1996)
Degree Days  
Heating Degree Days 11    
Growing Degree Days 4 (Base 50)    
Moisture  
Dew Point 48 °F    
Average Humidity 72    
Maximum Humidity 87    
Minimum Humidity 52    
Precipitation  
Precipitation 0.00 in - - ()
Sea Level Pressure  
Sea Level Pressure 30.15 in    
Wind  
Wind Speed 1 mph (East)    
Max Wind Speed 7 mph    
Max Gust Speed -    
Visibility 10 miles    
Events      
Averages and records for this station are not official NWS values.
T = Trace of Precipitation, MM = Missing Value Source: NWS Daily Summary

Daily Weather History Graph

Daily Weather History Graph

Search for Another Location

Airport:

Trip Planner

Search our weather history database for the weather conditions in past years. The results will help you decide how hot, cold, wet, or windy it might be!

Date:

Astronomy

Sep. 25, 2012 Rise Set
Actual Time 7:02 AM PDT 7:01 PM PDT
Civil Twilight 6:32 AM PDT 7:32 PM PDT
Nautical Twilight 5:56 AM PDT 8:07 PM PDT
Astronomical Twilight 5:19 AM PDT 8:44 PM PDT
Moon 4:43 PM PDT (9/25) 2:13 AM PDT (9/25)
Length of Visible Light 12h 59m
Length of Day
11h 58m
Waxing Gibbous, 81% of the Moon is Illuminated
Sep 25
Waxing Gibbous
Sep 29
Full
Oct 8
Last Quarter
Oct 15
New
Oct 21
First Quarter

Hourly Weather History & Observations

Time (PDT) Temp. Dew Point Humidity Pressure Visibility Wind Dir Wind Speed Gust Speed Precip Events Conditions
12:15 AM 57.2 °F 48.2 °F 72% 30.14 in 10.0 mi Calm Calm - N/A   Overcast
12:35 AM 57.2 °F 48.2 °F 72% 30.13 in 10.0 mi Calm Calm - N/A   Overcast
12:55 AM 57.2 °F 48.2 °F 72% 30.13 in 10.0 mi Calm Calm - N/A   Overcast
1:15 AM 57.2 °F 48.2 °F 72% 30.13 in 10.0 mi Calm Calm - N/A   Overcast
1:35 AM 57.2 °F 48.2 °F 72% 30.14 in 10.0 mi Calm Calm - N/A   Overcast
1:55 AM 55.4 °F 48.2 °F 77% 30.14 in 10.0 mi Calm Calm - N/A   Overcast
2:15 AM 55.4 °F 48.2 °F 77% 30.14 in 10.0 mi Calm Calm - N/A   Overcast
2:35 AM 55.4 °F 48.2 °F 77% 30.14 in 10.0 mi Calm Calm - N/A   Mostly Cloudy
2:55 AM 53.6 °F 48.2 °F 82% 30.13 in 10.0 mi Calm Calm - N/A   Mostly Cloudy
3:15 AM 53.6 °F 48.2 °F 82% 30.12 in 10.0 mi Calm Calm - N/A   Mostly Cloudy
3:35 AM 53.6 °F 48.2 °F 82% 30.13 in 10.0 mi Calm Calm - N/A   Overcast
3:55 AM 53.6 °F 48.2 °F 82% 30.13 in 10.0 mi Calm Calm - N/A   Overcast
4:15 AM 55.4 °F 50.0 °F 82% 30.13 in 10.0 mi Calm Calm - N/A   Overcast
4:35 AM 55.4 °F 50.0 °F 82% 30.14 in 10.0 mi Calm Calm - N/A   Overcast
4:55 AM 55.4 °F 50.0 °F 82% 30.14 in 10.0 mi Calm Calm - N/A   Overcast
5:15 AM 55.4 °F 50.0 °F 82% 30.13 in 10.0 mi Calm Calm - N/A   Overcast
5:35 AM 55.4 °F 50.0 °F 82% 30.14 in 10.0 mi NE 3.5 mph - N/A   Overcast
5:55 AM 55.4 °F 50.0 °F 82% 30.15 in 10.0 mi Calm Calm - N/A   Overcast
6:15 AM 55.4 °F 50.0 °F 82% 30.14 in 10.0 mi Calm Calm - N/A   Overcast
6:35 AM 55.4 °F 50.0 °F 82% 30.15 in 10.0 mi Calm Calm - N/A   Overcast
6:55 AM 55.4 °F 50.0 °F 82% 30.16 in 10.0 mi Calm Calm - N/A   Overcast
7:15 AM 55.4 °F 50.0 °F 82% 30.14 in 10.0 mi Calm Calm - N/A   Overcast
7:35 AM 55.4 °F 50.0 °F 82% 30.15 in 10.0 mi Calm Calm - N/A   Overcast
7:55 AM 55.4 °F 50.0 °F 82% 30.16 in 10.0 mi Calm Calm - N/A   Overcast
8:15 AM 55.4 °F 48.2 °F 77% 30.16 in 10.0 mi NE 4.6 mph - N/A   Overcast
8:35 AM 55.4 °F 48.2 °F 77% 30.16 in 10.0 mi NNE 3.5 mph - N/A   Overcast
8:55 AM 55.4 °F 48.2 °F 77% 30.17 in 10.0 mi NE 4.6 mph - N/A   Overcast
9:15 AM 55.4 °F 48.2 °F 77% 30.17 in 10.0 mi East 3.5 mph - N/A   Overcast
9:35 AM 55.4 °F 48.2 °F 77% 30.17 in 10.0 mi Calm Calm - N/A   Overcast
9:55 AM 55.4 °F 48.2 °F 77% 30.18 in 10.0 mi Calm Calm - N/A   Overcast
10:15 AM 55.4 °F 48.2 °F 77% 30.18 in 10.0 mi SW 3.5 mph - N/A   Overcast
10:35 AM 55.4 °F 48.2 °F 77% 30.17 in 10.0 mi SSW 3.5 mph - N/A   Overcast
10:55 AM 57.2 °F 50.0 °F 77% 30.17 in 10.0 mi SSW 3.5 mph - N/A   Overcast
11:15 AM 57.2 °F 50.0 °F 77% 30.17 in 10.0 mi SSW 3.5 mph - N/A   Overcast
12:15 PM 62.6 °F 51.8 °F 68% 30.18 in 10.0 mi SSW 4.6 mph - N/A   Scattered Clouds
12:35 PM 62.6 °F 50.0 °F 63% 30.17 in 10.0 mi Calm Calm - N/A   Scattered Clouds
12:55 PM 60.8 °F 48.2 °F 63% 30.16 in 10.0 mi East 5.8 mph - N/A   Scattered Clouds
1:15 PM 62.6 °F 48.2 °F 59% 30.15 in 10.0 mi SSW 4.6 mph - N/A   Scattered Clouds
1:35 PM 64.4 °F 48.2 °F 56% 30.14 in 10.0 mi South 3.5 mph - N/A   Mostly Cloudy
1:55 PM 66.2 °F 48.2 °F 52% 30.14 in 10.0 mi SW 3.5 mph - N/A   Overcast
2:15 PM 66.2 °F 50.0 °F 56% 30.14 in 10.0 mi Calm Calm - N/A   Overcast
2:35 PM 66.2 °F 50.0 °F 56% 30.14 in 10.0 mi West 3.5 mph - N/A   Overcast
2:55 PM 64.4 °F 50.0 °F 59% 30.13 in 10.0 mi North 4.6 mph - N/A   Overcast
3:15 PM 64.4 °F 48.2 °F 56% 30.13 in 10.0 mi Calm Calm - N/A   Overcast
3:35 PM 66.2 °F 48.2 °F 52% 30.13 in 10.0 mi South 4.6 mph - N/A   Overcast
3:55 PM 66.2 °F 48.2 °F 52% 30.13 in 10.0 mi NE 5.8 mph - N/A   Overcast
4:15 PM 64.4 °F 48.2 °F 56% 30.14 in 10.0 mi ENE 6.9 mph - N/A   Overcast
4:35 PM 64.4 °F 48.2 °F 56% 30.14 in 10.0 mi East 4.6 mph - N/A   Overcast
4:55 PM 64.4 °F 48.2 °F 56% 30.14 in 10.0 mi NNE 6.9 mph - N/A   Overcast
5:15 PM 64.4 °F 48.2 °F 56% 30.14 in 10.0 mi NE 5.8 mph - N/A   Overcast
5:55 PM 62.6 °F 48.2 °F 59% 30.14 in 10.0 mi NE 3.5 mph - N/A   Mostly Cloudy
6:15 PM 62.6 °F 48.2 °F 59% 30.14 in 10.0 mi NNE 4.6 mph - N/A   Partly Cloudy
6:35 PM 60.8 °F 48.2 °F 63% 30.14 in 10.0 mi ENE 4.6 mph - N/A   Clear
6:55 PM 60.8 °F 48.2 °F 63% 30.14 in 10.0 mi Calm Calm - N/A   Clear
7:15 PM 57.2 °F 46.4 °F 67% 30.14 in 10.0 mi Calm Calm - N/A   Clear
7:35 PM 55.4 °F 46.4 °F 72% 30.14 in 10.0 mi Calm Calm - N/A   Clear
7:55 PM 53.6 °F 44.6 °F 72% 30.15 in 5.0 mi Calm Calm - N/A   Clear
8:15 PM 51.8 °F 44.6 °F 76% 30.15 in 10.0 mi Calm Calm - N/A   Clear
8:55 PM 48.2 °F 42.8 °F 82% 30.15 in 10.0 mi Calm Calm - N/A   Clear
9:35 PM 46.4 °F 42.8 °F 87% 30.15 in 10.0 mi Calm Calm - N/A   Clear
10:15 PM 44.6 °F 39.2 °F 81% 30.15 in 10.0 mi Calm Calm - N/A   Clear
10:35 PM 44.6 °F 39.2 °F 81% 30.15 in 10.0 mi Calm Calm - N/A   Clear
10:55 PM 44.6 °F 37.4 °F 76% 30.16 in 10.0 mi Calm Calm - N/A   Clear
11:15 PM 44.6 °F 39.2 °F 81% 30.15 in 10.0 mi Calm Calm - N/A   Clear
11:35 PM 42.8 °F 37.4 °F 81% 30.16 in 8.0 mi Calm Calm - N/A   Clear
11:55 PM 44.6 °F 37.4 °F 76% 30.16 in 8.0 mi Calm Calm - N/A   Clear